Regional Weather Roundup
Issued by NWS

Home | Current Version | Previous Version | Graphics & Text | Print | Product List | Glossary On
Versions: 1 2 3 4 5 6 7 8 9 10 11 12 13 14 15 16 17 18 19 20 21 22 23 24 25 26 27 28 29 30 31 32 33 34 35 36 37 38 39 40 41 42 43 44 45 46 47 48 49 50
000
ASUS43 KTOP 310859
RWRKS

WEATHER ROUNDUP FOR KANSAS
NATIONAL WEATHER SERVICE GOODLAND KS
400 AM CDT SUN JUL 31 2016

NOTE:  "FAIR" INDICATES FEW OR NO CLOUDS BELOW 12,000 FEET WITH NO
SIGNIFICANT WEATHER AND/OR OBSTRUCTIONS TO VISIBILITY.

KSZ001>006-013>018-027>032-041>047-311000-
NORTHWEST KANSAS

CITY           SKY/WX    TMP DP  RH WIND       PRES   REMARKS
GOODLAND       CLEAR     70  60  70 W9        29.87F
HAYS           CLOUDY    75  63  64 NE15G21   29.89R
HILL CITY      CLOUDY    67  63  87 E14       29.87F
RUSSELL        TSTM      72  67  84 N17G24    29.90R
$$

KSZ061>065-074>080-084>089-311000-
SOUTHWEST KANSAS

CITY           SKY/WX    TMP DP  RH WIND       PRES   REMARKS
DODGE CITY     PTCLDY    73  66  78 S13       29.89F
ELKHART          N/A     71  53  52 S7          N/A
GARDEN CITY    CLEAR     69  62  78 SE6       29.89S
GREAT BEND     CLOUDY    73  66  78 S13       29.86S
LIBERAL        PTCLDY    73  59  60 SW10      29.92S
$$

KSZ066>073-081>083-090>101-311000-
SOUTHEAST KANSAS

CITY           SKY/WX    TMP DP  RH WIND       PRES   REMARKS
CHANUTE        MOCLDY    73  70  90 SE7       29.94S
COFFEYVILLE    CLEAR     74  71  91 SE6       29.93S
HUTCHINSON     MOCLDY    75  70  84 SE13      29.88F
NEWTON         CLOUDY    72  70  93 S23G30    29.88F THUNDER FOG
PARSONS        PTCLDY    74  71  91 SE5       29.94S
WICHITA INTL   PTCLDY    74  70  87 SE12      29.88F
WICHITA JABRA  CLOUDY    73  70  90 SE9       29.89F
WINFIELD       CLEAR     73  70  90 SE6       29.91F
$$

KSZ007>012-019>026-033>040-048>060-102>105-311000-
NORTHEAST KANSAS

CITY           SKY/WX    TMP DP  RH WIND       PRES   REMARKS
CONCORDIA      CLOUDY    73  69  87 S5        29.90S THUNDER
EMPORIA        CLOUDY    72  70  93 SE7       29.93S
LAWRENCE       CLOUDY    70  68  93 E6        29.94S
MANHATTAN      MOCLDY    75  69  81 CALM      29.90F
OLATHE IND     CLEAR     72  69  90 SE6       29.96S
OLATHE EXE     CLEAR     70  67  90 SE6       29.96S
SALINA         CLOUDY    77  70  79 CALM      29.89R THUNDER
TOPEKA BILLARD CLOUDY    71  68  90 E6        29.92F
TOPEKA FORBES  CLEAR     72  69  90 SE5       29.93F
$$




USA.gov is the U.S. government's official web portal to all federal, state and local government web resources and services.